GW5656 Weather Reports


Display with metric or nautical units.
time (UTC)temp
F
wind
direction
speed
MPH
gust
MPH
rain 1hr
in
rain 24hr
in
rain mn
in
humidity
%
barometer
mb
20260508012640 53 242 0.0 2.0 0.00 0.00 0.00 50 1015.1
20260508012137 54 221 2.0 2.0 0.00 0.00 0.00 48 1015.1
20260508011635 55 32 0.0 1.0 0.00 0.00 0.00 49 1014.8
20260508011132 55 321 0.0 2.0 0.00 0.00 0.00 48 1014.7
20260508010629 55 243 0.0 2.0 0.00 0.00 0.00 46 1014.7
20260508010127 55 313 3.0 3.0 0.00 0.00 0.00 48 1014.7
20260508005624 56 321 2.0 3.0 0.00 0.00 0.00 47 1014.6
20260508005120 56 204 4.0 5.0 0.00 0.00 0.00 48 1014.4
20260508004616 57 355 3.0 5.0 0.00 0.00 0.00 44 1014.4
20260508004113 57 337 5.0 8.0 0.00 0.00 0.00 44 1014.5
20260508003609 57 153 9.0 10.0 0.00 0.00 0.00 44 1014.2
20260508003107 57 320 2.0 4.0 0.00 0.00 0.00 44 1014.4
20260508002603 57 195 5.0 6.0 0.00 0.00 0.00 43 1014.3
20260508002101 58 244 3.0 6.0 0.00 0.00 0.00 43 1014.4
20260508001556 57 295 4.0 9.0 0.00 0.00 0.00 43 1014.3
20260508001053 58 140 0.0 3.0 0.00 0.00 0.00 45 1014.1
20260508000548 58 260 2.0 6.0 0.00 0.00 0.00 42 1013.9
20260508000046 58 278 1.0 3.0 0.00 0.00 0.00 43 1014.1
20260507235542 58 193 0.0 1.0 0.00 0.00 0.00 45 1013.9
20260507235040 59 337 2.0 5.0 0.00 0.00 0.00 42 1013.8
20260507234536 59 252 1.0 3.0 0.00 0.00 0.00 41 1013.7
20260507234033 59 302 2.0 3.0 0.00 0.00 0.00 42 1013.6
20260507233530 59 295 2.0 3.0 0.00 0.00 0.00 42 1013.5
20260507233028 60 279 2.0 2.0 0.00 0.00 0.00 41 1013.5
20260507232524 60 206 4.0 4.0 0.00 0.00 0.00 40 1013.4
20260507232022 61 156 2.0 6.0 0.00 0.00 0.00 38 1013.2
20260507231518 60 298 6.0 14.0 0.00 0.00 0.00 38 1013.4
20260507231015 61 199 3.0 6.0 0.00 0.00 0.00 42 1013.2
20260507230512 61 358 6.0 9.0 0.00 0.00 0.00 38 1013.2
20260507230008 62 243 1.0 4.0 0.00 0.00 0.00 40 1013.1
20260507225503 63 247 3.0 7.0 0.00 0.00 0.00 38 1013.0
20260507225000 62 265 2.0 6.0 0.00 0.00 0.00 40 1012.9
20260507224455 62 332 3.0 4.0 0.00 0.00 0.00 41 1012.9
20260507223953 62 338 2.0 6.0 0.00 0.00 0.00 40 1013.0
20260507223448 62 293 2.0 9.0 0.00 0.00 0.00 39 1012.7
20260507222946 63 207 3.0 8.0 0.00 0.00 0.00 39 1012.7
20260507222443 63 281 3.0 6.0 0.00 0.00 0.00 39 1012.7
20260507221939 63 290 2.0 6.0 0.00 0.00 0.00 39 1012.5
20260507221436 64 238 5.0 6.0 0.00 0.00 0.00 38 1012.4
20260507220932 63 322 4.0 6.0 0.00 0.00 0.00 41 1012.3
20260507220430 63 160 4.0 6.0 0.00 0.00 0.00 41 1012.1
20260507215926 64 318 3.0 4.0 0.00 0.00 0.00 41 1012.2
20260507215423 63 298 3.0 4.0 0.00 0.00 0.00 40 1012.1
20260507214920 64 286 4.0 6.0 0.00 0.00 0.00 40 1012.2
20260507214418 64 355 2.0 6.0 0.00 0.00 0.00 40 1011.9
20260507213913 63 351 4.0 5.0 0.00 0.00 0.00 41 1011.9
20260507213410 64 351 4.0 5.0 0.00 0.00 0.00 40 1012.0
20260507212907 63 209 4.0 12.0 0.00 0.00 0.00 41 1012.0
20260507212403 64 340 6.0 9.0 0.00 0.00 0.00 41 1012.0
20260507211900 63 308 2.0 9.0 0.00 0.00 0.00 42 1011.9
20260507211356 63 303 3.0 8.0 0.00 0.00 0.00 42 1011.9
20260507210853 66 316 5.0 6.0 0.00 0.00 0.00 41 1011.6
20260507210350 64 2 2.0 9.0 0.00 0.00 0.00 40 1011.7
20260507205847 64 283 4.0 7.0 0.00 0.00 0.00 41 1011.6
20260507205343 63 282 5.0 8.0 0.00 0.00 0.00 41 1011.7
20260507204840 66 336 6.0 9.0 0.00 0.00 0.00 40 1011.5
20260507204337 64 337 7.0 9.0 0.00 0.00 0.00 42 1011.6
20260507203835 65 316 3.0 5.0 0.00 0.00 0.00 40 1011.6
20260507203333 66 324 5.0 5.0 0.00 0.00 0.00 38 1011.5
20260507202828 65 249 3.0 12.0 0.00 0.00 0.00 39 1011.8
20260507202325 65 350 6.0 9.0 0.00 0.00 0.00 40 1011.6
20260507201820 65 316 5.0 6.0 0.00 0.00 0.00 40 1011.5
20260507201316 65 322 5.0 7.0 0.00 0.00 0.00 40 1011.5
20260507200813 64 167 2.0 6.0 0.00 0.00 0.00 41 1011.6
20260507200309 64 283 5.0 12.0 0.00 0.00 0.00 40 1011.5
20260507195805 64 316 5.0 9.0 0.00 0.00 0.00 40 1011.7
20260507195305 67 293 4.0 6.0 0.00 0.00 0.00 38 1011.5
20260507194800 68 172 6.0 12.0 0.00 0.00 0.00 38 1011.6
20260507194255 70 3 4.0 4.0 0.00 0.00 0.00 37 1011.7
20260507193752 67 291 5.0 6.0 0.00 0.00 0.00 38 1011.6
20260507193249 66 312 5.0 8.0 0.00 0.00 0.00 39 1011.6
20260507192745 68 298 4.0 10.0 0.00 0.00 0.00 38 1012.1
20260507192242 69 119 0.0 9.0 0.00 0.00 0.00 37 1011.7
20260507191738 70 352 1.0 7.0 0.00 0.00 0.00 40 1011.9
20260507191235 67 178 6.0 6.0 0.00 0.00 0.00 40 1011.8
20260507190732 66 355 4.0 9.0 0.00 0.00 0.00 44 1011.9
20260507190231 68 349 7.0 11.0 0.00 0.00 0.00 40 1012.3
20260507185729 69 288 4.0 5.0 0.00 0.00 0.00 39 1012.1
20260507185225 66 285 5.0 8.0 0.00 0.00 0.00 42 1012.2
20260507184723 69 193 6.0 8.0 0.00 0.00 0.00 38 1012.0
20260507184221 67 174 3.0 7.0 0.00 0.00 0.00 43 1012.2
20260507183717 66 354 8.0 9.0 0.00 0.00 0.00 44 1012.1
20260507183214 65 245 5.0 5.0 0.00 0.00 0.00 43 1012.1
20260507182711 65 326 4.0 9.0 0.00 0.00 0.00 45 1012.3
20260507182206 65 248 2.0 9.0 0.00 0.00 0.00 45 1012.3
20260507181703 64 342 7.0 8.0 0.00 0.00 0.00 48 1012.2
20260507181200 63 345 5.0 8.0 0.00 0.00 0.00 49 1012.3
20260507180656 64 330 7.0 10.0 0.00 0.00 0.00 48 1012.3
20260507180153 65 189 2.0 4.0 0.00 0.00 0.00 48 1012.1
20260507175649 63 325 5.0 5.0 0.00 0.00 0.00 50 1012.3
20260507175146 66 320 8.0 9.0 0.00 0.00 0.00 47 1012.6
20260507174643 66 280 1.0 6.0 0.00 0.00 0.00 48 1012.6
20260507174142 65 60 0.0 5.0 0.00 0.00 0.00 49 1012.6
20260507173638 63 304 4.0 7.0 0.00 0.00 0.00 50 1013.0
20260507173135 65 235 3.0 9.0 0.00 0.00 0.00 50 1013.0
20260507172631 64 183 2.0 6.0 0.00 0.00 0.00 50 1013.3
20260507172129 64 294 2.0 5.0 0.00 0.00 0.00 50 1013.1
20260507171624 63 296 3.0 10.0 0.00 0.00 0.00 53 1013.2
20260507171121 63 129 3.0 5.0 0.00 0.00 0.00 52 1013.2
20260507170618 62 224 2.0 4.0 0.00 0.00 0.00 52 1013.3
20260507170115 61 349 4.0 7.0 0.00 0.00 0.00 54 1013.5
20260507165611 61 331 3.0 5.0 0.00 0.00 0.00 52 1013.3
20260507165107 61 272 4.0 5.0 0.00 0.00 0.00 53 1013.6
20260507164603 60 343 3.0 5.0 0.00 0.00 0.00 55 1013.6
20260507164100 60 317 3.0 5.0 0.00 0.00 0.00 55 1013.8
20260507163558 60 328 0.0 3.0 0.00 0.00 0.00 55 1013.8
20260507163056 62 311 5.0 6.0 0.00 0.00 0.00 51 1013.6
20260507162555 62 261 2.0 6.0 0.00 0.00 0.00 49 1013.7
20260507162053 62 352 3.0 4.0 0.00 0.00 0.00 52 1014.0
20260507161549 63 314 4.0 7.0 0.00 0.00 0.00 52 1013.8
20260507161046 62 339 3.0 5.0 0.00 0.00 0.00 52 1013.8
20260507160542 60 327 4.0 9.0 0.00 0.00 0.00 54 1014.2
20260507160038 61 326 5.0 6.0 0.00 0.00 0.00 55 1014.2
20260507155534 61 327 3.0 5.0 0.00 0.00 0.00 55 1014.1
20260507155031 59 306 3.0 5.0 0.00 0.00 0.00 56 1014.4
20260507154528 60 344 4.0 9.0 0.00 0.00 0.00 56 1014.4
20260507154025 59 188 4.0 6.0 0.00 0.00 0.00 56 1014.7
20260507153521 59 341 6.0 6.0 0.00 0.00 0.00 59 1014.3
20260507153018 60 331 2.0 5.0 0.00 0.00 0.00 56 1014.6
20260507152514 58 290 4.0 5.0 0.00 0.00 0.00 58 1014.6
20260507152010 58 33 2.0 6.0 0.00 0.00 0.00 62 1014.8
20260507151507 58 335 2.0 4.0 0.00 0.00 0.00 61 1014.6
20260507151004 56 330 3.0 5.0 0.00 0.00 0.00 62 1014.7
20260507150500 56 351 3.0 6.0 0.00 0.00 0.00 63 1014.6
20260507145956 57 345 4.0 5.0 0.00 0.00 0.00 66 1014.8
20260507145452 56 335 2.0 3.0 0.00 0.00 0.00 68 1014.8
20260507144950 56 292 6.0 8.0 0.00 0.00 0.00 67 1015.2
20260507144446 56 311 4.0 5.0 0.00 0.00 0.00 67 1015.2
20260507143943 56 198 2.0 4.0 0.00 0.00 0.00 65 1015.2
20260507143441 54 321 3.0 4.0 0.00 0.00 0.00 72 1015.1
20260507142937 54 290 4.0 4.0 0.00 0.00 0.00 70 1015.4
20260507142433 54 246 2.0 4.0 0.00 0.00 0.00 72 1015.2
20260507141931 53 319 4.0 6.0 0.00 0.00 0.00 74 1015.5
20260507141426 53 312 3.0 4.0 0.00 0.00 0.00 73 1015.7
20260507140923 53 328 3.0 5.0 0.00 0.00 0.00 75 1015.6
20260507140420 53 335 4.0 4.0 0.00 0.00 0.00 77 1015.9
20260507135918 53 327 0.0 5.0 0.00 0.00 0.00 79 1015.8
20260507135414 53 325 3.0 5.0 0.00 0.00 0.00 79 1016.0
20260507134912 53 273 1.0 5.0 0.00 0.00 0.00 80 1015.6
20260507134408 52 352 3.0 5.0 0.00 0.00 0.00 82 1015.8
20260507133904 52 312 2.0 4.0 0.00 0.00 0.00 79 1016.0
20260507133400 52 339 5.0 6.0 0.00 0.00 0.00 78 1016.0
20260507132859 51 324 3.0 5.0 0.00 0.00 0.00 79 1016.2
20260507132355 51 305 4.0 4.0 0.00 0.00 0.00 81 1016.2
20260507131852 51 324 3.0 4.0 0.00 0.00 0.00 82 1016.2
20260507131348 51 298 4.0 4.0 0.00 0.00 0.00 82 1016.2
20260507130846 51 322 4.0 5.0 0.00 0.00 0.00 83 1016.3
20260507130342 51 212 0.0 4.0 0.00 0.00 0.00 82 1016.2
20260507125842 51 328 4.0 4.0 0.00 0.00 0.00 82 1016.2
20260507125338 51 321 3.0 6.0 0.00 0.00 0.00 82 1016.2
20260507124836 51 307 3.0 4.0 0.00 0.00 0.00 85 1016.3
20260507124332 51 332 2.0 3.0 0.00 0.00 0.00 84 1016.0
20260507123831 51 338 1.0 3.0 0.00 0.00 0.00 86 1016.3
20260507123327 51 277 2.0 3.0 0.00 0.00 0.00 88 1016.0
20260507122823 51 316 2.0 3.0 0.00 0.00 0.00 87 1016.1
20260507122319 51 334 2.0 3.0 0.00 0.00 0.00 88 1015.8
20260507121815 50 293 2.0 2.0 0.00 0.00 0.00 88 1015.9
20260507121311 50 296 3.0 4.0 0.00 0.00 0.00 89 1015.8
20260507120808 51 337 2.0 3.0 0.00 0.00 0.00 88 1015.8
20260507120304 51 286 2.0 2.0 0.00 0.00 0.00 87 1015.6
20260507115801 51 335 2.0 3.0 0.00 0.00 0.00 87 1015.7
20260507115256 51 339 1.0 3.0 0.00 0.00 0.00 87 1015.8
20260507114752 50 289 2.0 4.0 0.00 0.00 0.00 89 1015.7
20260507114250 51 309 3.0 4.0 0.00 0.00 0.00 87 1015.6
20260507113747 51 318 2.0 3.0 0.00 0.00 0.00 88 1015.8
20260507113244 51 328 1.0 3.0 0.00 0.00 0.00 88 1015.8
20260507112742 51 329 1.0 3.0 0.00 0.00 0.00 88 1015.6
20260507112238 50 308 3.0 3.0 0.00 0.00 0.00 88 1015.4
20260507111736 50 313 3.0 4.0 0.00 0.00 0.00 91 1015.3
20260507111232 50 276 2.0 5.0 0.00 0.00 0.00 90 1015.2
20260507110728 50 309 0.0 2.0 0.00 0.00 0.00 90 1015.2
20260507110225 50 309 2.0 2.0 0.00 0.00 0.00 89 1015.3
20260507105722 50 295 1.0 2.0 0.00 0.00 0.00 90 1015.3
20260507105218 50 316 2.0 2.0 0.00 0.00 0.00 90 1015.2
20260507104716 50 256 2.0 4.0 0.00 0.00 0.00 90 1015.1
20260507104212 50 353 1.0 2.0 0.00 0.00 0.00 90 1015.1
20260507103708 50 260 0.0 2.0 0.00 0.00 0.00 90 1015.3
20260507103205 50 286 1.0 2.0 0.00 0.00 0.00 91 1015.2
20260507102701 50 324 2.0 3.0 0.00 0.00 0.00 91 1015.2
20260507102158 50 229 1.0 2.0 0.00 0.00 0.00 90 1015.1
20260507101653 50 319 2.0 3.0 0.00 0.00 0.00 91 1015.1
20260507101149 49 252 1.0 3.0 0.00 0.00 0.00 91 1015.2
20260507100647 50 285 1.0 4.0 0.00 0.00 0.00 90 1014.9
20260507100145 50 322 2.0 3.0 0.00 0.00 0.00 91 1015.2
20260507095643 49 288 1.0 2.0 0.00 0.00 0.00 91 1014.9
20260507095139 49 278 0.0 2.0 0.00 0.00 0.00 92 1015.1
20260507094635 49 301 1.0 3.0 0.00 0.00 0.00 91 1014.9
20260507094132 49 152 1.0 3.0 0.00 0.00 0.00 91 1014.9
20260507093629 49 326 3.0 3.0 0.00 0.00 0.00 91 1015.1
20260507093128 49 310 1.0 3.0 0.00 0.00 0.00 92 1014.8
20260507092624 49 349 4.0 5.0 0.00 0.00 0.00 92 1014.6
20260507092121 49 321 4.0 6.0 0.00 0.00 0.00 92 1014.7
20260507091618 49 315 4.0 5.0 0.00 0.00 0.00 92 1014.8
20260507091114 49 1 2.0 3.0 0.00 0.00 0.00 93 1014.8
20260507090610 49 268 2.0 2.0 0.00 0.00 0.00 93 1014.6
20260507090107 48 228 2.0 4.0 0.00 0.00 0.00 92 1014.6
20260507085604 49 251 0.0 4.0 0.00 0.00 0.00 92 1014.7
20260507085100 49 356 2.0 2.0 0.00 0.00 0.00 91 1014.9
20260507084557 49 353 0.0 2.0 0.00 0.00 0.00 92 1014.9
20260507084054 49 306 3.0 4.0 0.00 0.00 0.00 91 1014.5
20260507083550 50 297 4.0 4.0 0.00 0.00 0.00 90 1014.5
20260507083048 50 339 3.0 4.0 0.00 0.00 0.00 90 1014.5
20260507082544 50 325 3.0 4.0 0.00 0.00 0.00 90 1014.3
20260507082041 50 308 5.0 6.0 0.00 0.00 0.00 90 1014.6
20260507081536 50 344 4.0 6.0 0.00 0.00 0.00 90 1014.9
20260507081034 51 329 4.0 6.0 0.00 0.00 0.00 89 1014.6
20260507080529 51 338 4.0 5.0 0.00 0.00 0.00 89 1014.7
20260507080026 51 323 3.0 5.0 0.00 0.00 0.00 88 1014.8
20260507075521 51 323 3.0 3.0 0.00 0.00 0.00 88 1014.9
20260507075018 51 347 3.0 5.0 0.00 0.00 0.00 88 1014.9
20260507074514 52 318 3.0 4.0 0.00 0.00 0.00 88 1014.9
20260507074013 52 333 3.0 4.0 0.00 0.00 0.00 88 1014.8
20260507073509 52 335 3.0 5.0 0.00 0.00 0.00 87 1014.6
20260507073006 52 338 3.0 5.0 0.00 0.00 0.00 88 1014.6
20260507072503 52 331 3.0 6.0 0.00 0.00 0.00 87 1014.6
20260507072000 52 343 2.0 4.0 0.00 0.00 0.00 88 1014.5
20260507071457 52 349 3.0 6.0 0.00 0.00 0.00 88 1014.8
20260507070954 52 290 2.0 5.0 0.00 0.00 0.00 88 1014.5
20260507070451 53 335 4.0 4.0 0.00 0.00 0.00 88 1014.5
20260507065948 53 335 4.0 6.0 0.00 0.00 0.00 87 1014.2
20260507065444 53 313 3.0 4.0 0.00 0.00 0.00 87 1014.4
20260507064942 53 349 5.0 7.0 0.00 0.00 0.00 87 1014.3
20260507064440 54 327 5.0 5.0 0.00 0.00 0.00 86 1014.2
20260507063937 54 328 1.0 5.0 0.00 0.00 0.00 87 1014.4
20260507063434 54 332 3.0 8.0 0.00 0.00 0.00 86 1014.5
20260507062931 54 331 4.0 5.0 0.00 0.00 0.00 86 1014.1
20260507062429 54 347 2.0 4.0 0.00 0.00 0.00 86 1014.3
20260507061926 54 334 4.0 7.0 0.00 0.00 0.00 86 1014.5
20260507061424 55 336 3.0 5.0 0.00 0.00 0.00 86 1014.3
20260507060922 55 347 6.0 9.0 0.00 0.00 0.00 85 1014.4
20260507060418 56 346 3.0 6.0 0.00 0.00 0.00 85 1014.4
20260507055915 56 340 4.0 6.0 0.00 0.00 0.00 85 1014.4
20260507055410 56 329 4.0 4.0 0.00 0.00 0.00 84 1014.2
20260507054907 56 338 4.0 5.0 0.00 0.00 0.00 84 1014.5
20260507054403 57 335 4.0 5.0 0.00 0.00 0.00 83 1014.5
20260507053901 57 337 4.0 6.0 0.00 0.00 0.00 83 1014.8
20260507053358 57 326 4.0 8.0 0.00 0.00 0.00 83 1014.6
20260507052857 57 347 2.0 5.0 0.00 0.00 0.00 83 1014.4
20260507052354 57 359 1.0 4.0 0.00 0.00 0.00 84 1014.5
20260507051851 57 320 4.0 4.0 0.00 0.00 0.00 83 1014.5
20260507051349 57 344 4.0 5.0 0.00 0.00 0.00 83 1014.5
20260507050845 58 331 5.0 6.0 0.00 0.00 0.00 83 1014.2
20260507050342 58 340 4.0 6.0 0.00 0.00 0.00 83 1014.2
20260507045838 58 337 5.0 5.0 0.00 0.00 0.00 83 1014.2
20260507045335 59 328 5.0 6.0 0.00 0.00 0.00 82 1014.2
20260507044832 59 324 2.0 4.0 0.00 0.00 0.00 82 1014.0
20260507044329 59 339 5.0 7.0 0.00 0.00 0.00 81 1014.0
20260507043825 59 340 3.0 4.0 0.00 0.00 0.00 81 1014.0
20260507043321 59 331 2.0 5.0 0.00 0.00 0.00 81 1013.8
20260507042818 59 315 3.0 6.0 0.00 0.00 0.00 81 1013.9
20260507042314 59 319 4.0 4.0 0.00 0.00 0.00 81 1013.9
20260507041811 59 297 2.0 3.0 0.00 0.00 0.00 81 1013.8
20260507041307 59 306 4.0 5.0 0.00 0.00 0.00 82 1013.4
20260507040805 60 341 3.0 4.0 0.00 0.00 0.00 82 1013.7
20260507040300 60 343 5.0 5.0 0.00 0.00 0.00 82 1013.1
20260507035756 60 346 4.0 4.0 0.00 0.11 0.11 82 1013.5
20260507035252 60 339 4.0 4.0 0.00 0.11 0.11 82 1013.0
20260507034750 60 203 2.0 3.0 0.00 0.11 0.11 82 1012.6
20260507034246 60 252 0.0 2.0 0.00 0.11 0.11 80 1013.1
20260507033745 60 269 0.0 1.0 0.00 0.11 0.11 83 1013.8
20260507033242 60 214 0.0 3.0 0.00 0.11 0.11 81 1013.7
20260507032739 60 123 2.0 3.0 0.00 0.11 0.11 83 1014.5
20260507032235 60 340 2.0 2.0 0.00 0.11 0.11 84 1014.6
20260507031732 60 306 1.0 1.0 0.00 0.11 0.11 84 1014.5
20260507031229 61 263 1.0 2.0 0.00 0.11 0.11 83 1014.5
20260507030725 61 248 0.0 1.0 0.00 0.11 0.11 82 1014.2
20260507030223 60 158 2.0 2.0 0.00 0.11 0.11 84 1014.2
20260507025720 60 289 0.0 2.0 0.00 0.11 0.11 84 1014.3
20260507025217 60 322 0.0 2.0 0.00 0.11 0.11 84 1014.1
20260507024715 61 304 1.0 2.0 0.00 0.11 0.11 81 1013.6
20260507024212 61 310 0.0 1.0 0.00 0.11 0.11 79 1013.2
20260507023707 61 181 2.0 2.0 0.00 0.11 0.11 81 1013.4
20260507023205 61 323 2.0 2.0 0.00 0.11 0.11 81 1014.0
20260507022702 62 300 1.0 2.0 0.00 0.11 0.11 81 1013.9
20260507022158 62 310 0.0 1.0 0.00 0.11 0.11 79 1013.9
20260507021654 62 330 1.0 2.0 0.00 0.11 0.11 78 1013.9
20260507021149 61 295 3.0 3.0 0.00 0.11 0.11 79 1014.1
20260507020648 62 72 1.0 1.0 0.00 0.11 0.11 80 1013.9
20260507020144 62 323 1.0 4.0 0.00 0.11 0.11 80 1013.9
20260507015642 62 280 2.0 2.0 0.00 0.11 0.11 79 1013.5
20260507015139 63 302 2.0 3.0 0.00 0.11 0.11 77 1013.2
20260507014636 62 217 1.0 4.0 0.00 0.11 0.11 77 1012.6
20260507014132 63 311 0.0 1.0 0.00 0.11 0.11 75 1013.3
20260507013629 63 284 2.0 4.0 0.00 0.11 0.11 74 1013.2
20260507013126 63 313 2.0 3.0 0.00 0.11 0.11 75 1013.5